JTC716 KAPA-KDPA

Flight info

Callsign JTC716
Flight time N/A
Altitude 45000
Route ECHOO1 ZIRKL DCT PLL DCT SIMMN DCT JOT DCT
Aircraft C750/L-S/C

Departure

Time N/A
Airport Centennial Airport (KAPA)

Arrival

Time 2026-04-12 16:12
Airport Dupage Airport (KDPA)
Time Latitude Longitude Altitude Speed Heading
2026-04-12 15:58 42.00794 -88.25767 4992 ft 300 kts 26°
2026-04-12 15:58 42.02553 -88.24382 4983 ft 300 kts 26°
2026-04-12 15:58 42.04355 -88.22960 4965 ft 301 kts 26°
2026-04-12 15:58 42.06153 -88.21541 4987 ft 300 kts 26°
2026-04-12 15:59 42.07952 -88.20120 4995 ft 301 kts 26°
2026-04-12 15:59 42.09758 -88.18692 4991 ft 301 kts 26°
2026-04-12 15:59 42.11648 -88.17603 4935 ft 291 kts
2026-04-12 15:59 42.13637 -88.17098 4988 ft 291 kts
2026-04-12 16:00 42.15629 -88.16580 4990 ft 291 kts
2026-04-12 16:00 42.17608 -88.16031 4992 ft 291 kts
2026-04-12 16:00 42.19589 -88.15491 4974 ft 290 kts
2026-04-12 16:00 42.21576 -88.14960 4977 ft 290 kts
2026-04-12 16:01 42.23533 -88.14448 4973 ft 291 kts
2026-04-12 16:01 42.25481 -88.14559 4931 ft 272 kts 336°
2026-04-12 16:01 42.27162 -88.15623 4940 ft 257 kts 314°
2026-04-12 16:01 42.28357 -88.17317 4956 ft 244 kts 295°
2026-04-12 16:02 42.29013 -88.19315 4955 ft 231 kts 277°
2026-04-12 16:02 42.29155 -88.21433 4951 ft 224 kts 261°
2026-04-12 16:02 42.28806 -88.23449 4962 ft 220 kts 246°
2026-04-12 16:02 42.28024 -88.25202 4964 ft 219 kts 231°
2026-04-12 16:03 42.26875 -88.26553 4968 ft 222 kts 216°
2026-04-12 16:03 42.25437 -88.27374 4968 ft 229 kts 200°
2026-04-12 16:03 42.23866 -88.27531 4949 ft 222 kts 184°
2026-04-12 16:03 42.22391 -88.27034 4957 ft 220 kts 168°
2026-04-12 16:04 42.21053 -88.25966 4965 ft 225 kts 156°
2026-04-12 16:04 42.19753 -88.24788 4973 ft 225 kts 158°
2026-04-12 16:04 42.18461 -88.23638 4979 ft 215 kts 158°
2026-04-12 16:04 42.17265 -88.22550 4968 ft 202 kts 158°
2026-04-12 16:05 42.16084 -88.21498 4878 ft 204 kts 159°
2026-04-12 16:05 42.14903 -88.20440 4553 ft 203 kts 159°
2026-04-12 16:05 42.13741 -88.19390 4247 ft 199 kts 159°
2026-04-12 16:05 42.12548 -88.18594 4002 ft 185 kts 175°
2026-04-12 16:06 42.11325 -88.18289 3832 ft 174 kts 188°
2026-04-12 16:06 42.10153 -88.18396 3807 ft 167 kts 199°
2026-04-12 16:06 42.09026 -88.18760 3643 ft 163 kts 203°
2026-04-12 16:06 42.07989 -88.19114 3482 ft 153 kts 204°
2026-04-12 16:07 42.06961 -88.19471 3345 ft 153 kts 203°
2026-04-12 16:07 42.05926 -88.19820 3212 ft 152 kts 204°
2026-04-12 16:07 42.04913 -88.20158 3081 ft 149 kts 203°
2026-04-12 16:07 42.03902 -88.20500 2954 ft 152 kts 203°
2026-04-12 16:08 42.02879 -88.20843 2825 ft 151 kts 202°
2026-04-12 16:08 42.02192 -88.21074 2731 ft 147 kts 202°
2026-04-12 16:08 42.01243 -88.21387 2613 ft 141 kts 203°
2026-04-12 16:08 42.00321 -88.21697 2498 ft 129 kts 203°
2026-04-12 16:09 41.99550 -88.21946 2331 ft 102 kts 204°
2026-04-12 16:09 41.98886 -88.22174 2199 ft 96 kts 202°
2026-04-12 16:09 41.98234 -88.22395 2089 ft 100 kts 200°
2026-04-12 16:09 41.97537 -88.22632 1959 ft 107 kts 197°
2026-04-12 16:10 41.96823 -88.22871 1808 ft 105 kts 196°
2026-04-12 16:10 41.96138 -88.23101 1673 ft 99 kts 197°
2026-04-12 16:10 41.95449 -88.23332 1559 ft 106 kts 195°
2026-04-12 16:10 41.94717 -88.23578 1426 ft 110 kts 194°
2026-04-12 16:11 41.93954 -88.23835 1276 ft 111 kts 196°
2026-04-12 16:11 41.93245 -88.24071 1138 ft 104 kts 196°
2026-04-12 16:11 41.92510 -88.24325 1033 ft 113 kts 194°
2026-04-12 16:11 41.91732 -88.24576 876 ft 115 kts 193°
2026-04-12 16:12 41.91005 -88.24820 763 ft 93 kts 194°
2026-04-12 16:12 41.90532 -88.24980 759 ft 45 kts 193°
2026-04-12 16:12 41.90320 -88.25052 754 ft 23 kts 194°
2026-04-12 16:12 41.90287 -88.25131 758 ft 9 kts 284°
2026-04-12 16:13 41.90299 -88.25197 756 ft 7 kts 285°
2026-04-12 16:13 41.90314 -88.25283 760 ft 10 kts 281°
2026-04-12 16:13 41.90330 -88.25373 758 ft 10 kts 286°
2026-04-12 16:13 41.90347 -88.25460 759 ft 10 kts 285°
2026-04-12 16:14 41.90379 -88.25533 759 ft 9 kts 325°
2026-04-12 16:14 41.90437 -88.25541 756 ft 9 kts 28°
2026-04-12 16:14 41.90473 -88.25499 757 ft 6 kts 12°
2026-04-12 16:14 41.90530 -88.25492 759 ft 10 kts
2026-04-12 16:15 41.90591 -88.25475 759 ft 7 kts 14°
2026-04-12 16:15 41.90596 -88.25473 756 ft 0 kts 15°